SCP
0 0 0 0 0 0 0 0 0 0 0 0 0 0 0 0 0 0 0 0 0 0 0 0 0 0 0 0 0 0 0 0 0 0 0 1 1 1 0 0 0 0 0
0 0 0 0 0 0 0 0 0 0 0 0 0 0 0 0 0 0 0 0 0 0 0 0 0 0 0 0 0 0 0 0 0 0 0 0 1 0 0 0 0 0 0
0 0 0 0 0 0 0 0 0 0 0 0 0 0 0 0 0 0 0 0 0 0 0 0 0 0 0 0 0 0 0 0 0 0 1 0 0 0 0 0 0 0 0
0 0 0 0 0 0 0 0 0 0 0 0 0 0 0 0 0 0 0 0 0 0 0 0 0 0 0 0 0 0 0 0 0 1 1 0 0 0 0 0 0 0 0
0 0 0 0 0 0 0 0 0 0 0 0 0 0 0 0 0 0 0 0 0 0 0 0 0 0 0 0 0 0 0 0 0 1 1 0 0 0 0 0 0 0 0
0 0 0 0 0 0 0 0 0 0 0 0 0 0 0 0 0 0 0 0 0 0 0 0 0 0 0 0 0 0 0 0 0 0 0 0 0 0 0 0 0 0 0
0 0 0 0 0 0 0 0 0 0 0 0 0 0 0 0 0 0 0 0 0 0 0 0 0 0 0 0 0 0 0 0 0 0 0 0 0 0 0 0 0 0 0
0 0 0 0 0 0 0 0 0 0 0 0 0 0 0 0 0 0 0 0 0 0 0 0 0 0 0 0 0 0 0 0 0 0 0 0 0 0 0 0 0 0 0
0 0 0 0 0 0 0 0 0 0 0 0 0 0 0 0 0 0 0 0 0 0 0 0 0 0 0 0 0 0 0 0 0 0 0 0 0 0 0 0 0 0 0
0 0 0 0 0 0 0 0 0 0 0 0 0 0 0 0 0 0 0 0 0 0 0 0 0 0 0 0 0 0 0 0 0 0 0 0 0 0 0 0 0 0 0
0 0 0 0 0 0 0 0 0 0 0 0 0 0 0 0 0 0 0 0 0 0 0 0 0 0 0 0 0 0 0 0 0 0 0 0 0 0 0 0 0 0 0
0 0 0 0 0 0 0 0 0 0 0 0 0 0 0 0 0 0 0 0 0 0 0 0 0 0 0 0 0 0 0 0 0 0 0 0 0 0 0 0 0 0 0
0 0 0 0 0 0 0 0 0 0 0 0 0 0 0 0 0 0 0 0 0 0 0 0 0 0 0 0 0 0 0 0 0 0 0 0 0 0 0 0 0 0 0
0 0 0 0 0 0 0 0 0 0 0 0 0 0 0 0 0 0 0 0 0 0 0 0 0 0 0 0 0 0 0 0 0 0 0 0 0 0 0 0 0 0 0
0 0 0 0 0 0 0 0 0 0 0 0 0 0 0 0 0 0 0 0 0 0 0 0 0 0 0 0 0 0 0 0 0 0 0 0 0 0 0 0 0 0 0
0 0 0 0 0 0 0 0 0 0 0 0 0 0 0 0 0 0 0 0 0 0 0 0 0 0 0 0 0 0 0 0 0 0 0 0 0 0 0 0 0 0 0
0 0 0 0 0 0 0 0 0 0 0 0 0 0 0 0 0 0 0 0 0 0 0 0 0 0 0 0 0 0 0 0 0 0 0 0 0 0 0 0 0 0 0
0 0 0 0 0 0 0 0 0 0 0 0 0 0 0 0 0 0 0 0 0 0 0 0 0 0 0 0 0 0 0 0 0 0 0 0 0 0 0 0 0 0 0
0 0 0 0 0 0 0 0 0 0 0 0 0 0 0 0 0 0 0 0 0 0 0 0 0 0 0 0 0 0 0 0 0 0 0 0 0 0 0 0 0 0 0
0 0 0 0 0 0 0 0 0 0 0 0 0 0 0 0 0 0 0 0 0 0 0 0 0 0 0 0 0 0 0 0 0 0 0 0 1 1 0 0 0 0 0
0 0 0 0 0 0 0 0 0 0 0 0 0 0 0 0 0 0 0 0 0 0 0 0 0 0 0 0 0 0 0 0 0 0 0 0 1 0 0 0 0 0 0
0 0 0 0 0 0 0 0 0 0 0 0 0 0 0 0 0 0 0 0 0 0 0 0 0 0 0 0 0 0 0 0 0 0 0 0 0 0 0 0 0 0 0
0 0 0 0 0 0 0 0 0 0 0 0 0 0 0 0 0 0 0 0 0 0 0 0 0 0 0 0 0 0 0 0 0 0 0 0 0 0 0 0 0 0 0
0 0 0 0 0 0 0 0 0 0 0 0 0 0 0 0 0 0 0 0 0 0 0 0 0 0 0 0 0 0 0 0 0 0 0 0 0 0 0 0 0 0 0
0 0 0 0 0 0 0 0 0 0 0 0 0 0 0 0 0 0 0 0 0 0 0 0 0 0 0 0 0 0 0 0 0 0 0 0 0 0 0 0 0 0 0
0 0 0 0 0 0 0 0 0 0 0 0 0 0 0 0 0 0 0 0 0 0 0 0 0 0 0 0 0 0 0 0 0 0 0 0 0 0 0 0 0 0 0
Wind_Speed
4 4 5 5 5 5 4 5 6 5 5 5 5 5 5 5 5 4 4 4 4 4 3 3 3 2 2 2 2 2 2 3 3 2 1 1 2 4 4 4 4 4 4
5 5 5 6 5 5 6 6 6 6 6 5 5 5 5 5 5 5 6 5 4 5 4 3 4 3 3 2 2 3 3 3 3 3 1 1 2 4 5 5 4 4 3
5 5 6 6 6 6 6 7 6 6 6 6 5 5 6 5 5 5 6 5 5 5 5 5 5 4 4 2 3 3 3 3 3 3 2 1 1 3 3 3 3 2 3
5 6 6 7 7 7 7 7 7 6 6 6 6 6 6 5 5 5 5 5 5 5 5 5 6 6 6 5 4 4 3 3 3 3 2 2 2 2 3 3 3 2 2
6 6 6 7 7 7 7 7 7 6 7 6 6 6 6 5 6 6 6 6 5 5 4 5 6 8 8 6 4 4 4 3 2 3 3 2 3 4 4 3 4 3 1
6 6 7 7 7 7 7 7 7 7 6 6 6 6 6 6 7 9 6 5 5 5 5 5 5 6 8 8 8 8 7 6 4 4 3 4 4 5 4 5 4 4 3
6 7 7 7 7 7 8 7 7 7 6 6 6 6 6 8 10 10 10 6 5 5 5 5 5 5 6 5 6 7 7 8 8 6 5 5 5 6 6 6 6 5 4
7 7 7 7 8 8 7 7 7 6 6 6 6 6 6 8 10 10 11 7 5 6 6 7 6 5 6 6 5 4 4 4 6 5 6 6 5 5 7 7 6 4 3
7 8 8 8 8 8 8 8 7 6 6 5 5 5 6 8 9 10 9 4 4 5 6 6 7 6 8 9 6 5 4 3 6 8 9 8 8 8 7 5 5 5 3
8 8 8 8 8 8 8 7 6 5 5 5 5 5 5 6 7 8 7 3 4 4 4 5 8 8 9 10 7 6 6 4 3 3 5 5 6 7 9 8 8 7 4
8 8 8 8 7 7 6 5 6 5 5 5 5 4 4 4 6 6 5 3 4 4 3 3 4 8 9 10 8 6 8 6 4 4 4 3 3 4 5 6 6 7 6
7 8 8 8 7 6 6 6 5 5 5 5 4 4 3 3 3 3 4 4 4 3 3 3 4 7 9 9 8 8 10 7 3 3 3 3 3 4 4 6 7 6 5
8 8 8 8 7 6 5 6 5 4 3 4 3 3 3 2 2 3 2 3 4 3 2 4 5 7 7 6 8 9 7 5 4 4 4 4 4 4 4 4 4 4 3
8 8 7 7 7 6 5 4 3 4 4 3 3 3 3 2 2 2 1 1 1 1 1 2 3 4 4 4 4 4 4 5 5 5 5 4 3 3 4 4 4 5 4
7 7 7 6 6 6 5 4 4 3 3 3 3 3 2 3 3 2 1 1 1 1 1 1 1 1 2 2 2 3 3 4 4 4 4 4 3 4 4 4 4 5 5
6 6 5 5 5 5 5 5 6 5 6 5 4 4 3 4 4 3 3 3 3 2 2 2 2 3 3 4 4 4 4 5 5 5 4 5 4 4 4 3 4 5 6
6 6 5 5 5 5 4 4 5 6 6 5 5 5 5 5 5 5 4 4 4 2 2 2 3 3 4 4 4 4 5 5 5 5 5 5 5 5 4 4 5 5 5
6 7 6 5 5 5 5 4 3 3 4 4 4 6 6 6 6 5 3 1 2 2 3 3 4 4 4 4 4 5 5 4 5 5 5 5 6 5 5 5 6 6 6
6 5 5 5 5 5 4 4 3 4 3 3 4 4 5 5 5 4 3 2 3 3 3 3 3 3 4 4 4 4 5 5 5 5 5 6 6 6 6 6 6 9 7
5 9 8 5 5 5 4 4 4 4 4 3 3 3 3 2 2 2 2 3 3 3 3 3 3 3 3 4 4 4 4 4 5 5 5 5 5 5 6 7 7 7 6
5 6 9 6 4 4 4 4 4 3 3 4 4 4 4 2 3 3 3 3 4 4 4 3 3 3 3 3 3 3 4 3 4 4 5 5 5 5 5 6 7 7 6
4 4 4 4 4 4 4 4 4 3 4 4 4 4 5 3 3 3 2 2 2 3 3 2 2 2 2 2 2 3 3 3 3 4 4 4 4 5 5 6 6 6 7
4 5 5 4 4 5 5 4 4 3 3 4 4 3 3 3 3 3 3 3 2 2 1 1 1 1 1 1 1 2 3 3 3 4 4 4 4 5 5 6 8 8 8
4 4 4 4 4 4 4 4 4 4 4 4 4 3 3 3 3 3 3 2 2 2 2 2 1 2 2 1 1 0 1 1 2 3 5 5 5 5 5 6 6 8 8
3 3 3 3 4 4 4 4 4 4 4 4 4 4 4 3 3 3 3 3 3 3 4 3 2 2 3 3 2 1 1 2 2 3 4 4 5 5 5 6 6 6 6
3 3 3 3 3 3 3 3 4 4 4 4 4 4 4 4 4 4 3 3 3 4 4 4 4 5 5 4 3 3 2 2 2 3 4 4 5 4 5 4 6 6 7
Wind_Direction
314 306 308 303 300 301 298 291 286 282 284 283 278 274 270 264 255 244 243 237 234 242 238 217 218 199 194 178 168 167 166 158 177 231 257 137 140 148 145 144 144 153 168
306 309 306 303 304 303 295 289 286 282 278 275 276 272 268 264 251 240 244 240 228 232 232 218 215 205 201 188 177 179 174 177 172 191 223 140 157 161 149 149 149 151 149
310 310 308 304 300 294 290 288 287 284 282 280 277 270 267 261 252 246 237 233 225 225 222 214 212 197 199 194 187 183 186 183 168 169 189 177 142 149 139 138 137 127 149
310 306 303 299 293 288 287 287 285 282 279 276 271 266 263 260 251 248 242 235 228 221 219 213 207 198 194 192 195 189 184 174 164 165 177 174 157 150 144 148 150 139 148
310 306 299 295 293 292 291 289 288 284 284 275 271 269 263 258 251 244 239 237 229 224 225 219 209 202 196 192 190 182 174 169 169 172 179 164 169 164 173 168 165 146 145
309 303 300 302 302 299 295 292 290 286 283 278 272 268 266 267 266 259 245 231 221 217 224 224 220 208 204 203 201 189 176 176 180 181 188 190 192 183 171 169 159 159 183
309 306 305 305 304 300 300 301 291 286 281 278 272 266 262 262 263 259 249 231 219 215 214 214 223 218 201 190 204 205 200 200 189 179 190 198 193 186 172 174 178 173 176
311 309 309 308 304 302 299 295 289 282 280 276 274 267 261 265 263 255 247 231 220 217 213 210 209 214 209 190 192 194 200 207 203 193 194 202 203 189 179 176 174 156 123
314 312 311 310 306 304 303 298 292 288 287 280 273 267 262 269 266 253 235 211 212 218 217 212 206 210 216 199 182 186 202 227 223 212 208 206 204 202 180 153 148 152 161
312 309 308 307 304 302 299 295 292 287 285 287 286 276 267 271 271 253 224 201 206 214 216 215 212 207 208 198 185 184 199 217 206 200 212 218 211 210 197 184 173 169 163
306 308 310 310 304 299 300 298 301 303 302 299 297 297 289 283 282 260 224 195 199 202 202 208 215 208 207 208 197 193 204 198 189 189 194 198 194 196 198 194 185 175 173
311 314 315 314 313 319 315 313 314 316 314 311 307 309 306 304 298 268 234 212 196 188 198 200 210 209 211 213 205 208 204 191 173 174 186 198 202 202 201 200 195 191 185
320 319 317 318 317 315 316 317 320 325 322 317 319 315 313 321 323 313 283 241 218 196 203 203 209 212 210 213 215 207 193 179 173 182 198 206 207 207 191 192 194 185 176
321 319 319 320 320 323 323 317 315 319 320 319 321 316 312 320 328 331 324 310 254 206 214 214 220 213 200 195 196 200 190 183 184 195 202 205 197 197 196 185 183 172 164
321 319 319 316 317 319 319 310 304 285 277 280 278 279 294 301 293 287 253 256 234 218 177 146 157 177 193 196 195 197 193 188 199 203 199 198 199 202 208 187 175 167 170
320 319 315 313 315 316 315 316 310 296 296 293 274 261 265 266 281 283 276 268 258 219 159 180 202 203 208 210 213 211 203 204 205 203 202 200 202 201 203 191 175 173 174
313 310 309 311 313 315 314 316 319 322 316 305 294 285 275 282 284 278 275 281 272 215 203 219 216 212 216 217 217 214 214 210 200 197 201 203 201 198 192 191 182 176 175
317 314 314 307 310 311 310 307 303 306 318 319 301 283 283 284 283 278 269 279 272 229 224 226 229 225 221 220 220 218 217 210 201 200 200 200 196 192 191 190 185 180 174
318 313 311 309 313 314 315 317 313 310 305 305 313 313 304 299 293 275 238 217 233 249 248 243 235 229 226 224 219 215 213 208 201 197 200 201 195 191 192 190 184 181 175
317 322 330 320 321 324 327 332 329 322 317 311 310 305 313 320 316 294 235 225 233 248 250 248 246 238 230 226 219 212 212 207 195 194 196 199 193 187 187 185 180 178 178
314 318 330 331 326 322 325 329 326 324 319 314 306 301 314 300 295 292 276 247 232 236 242 248 250 247 241 229 214 205 202 204 198 192 191 191 184 180 181 180 179 176 168
312 311 317 319 320 322 323 325 328 328 327 325 319 322 323 321 315 314 311 294 262 242 242 242 247 246 238 228 220 213 207 204 197 185 181 177 172 172 173 173 171 168 166
319 320 323 322 320 325 333 335 335 336 333 331 332 335 337 333 332 334 333 331 327 324 311 267 267 283 285 255 224 210 208 206 197 179 171 169 167 168 168 167 167 165 167
317 318 322 324 327 331 332 334 335 335 336 334 337 340 337 334 334 338 342 345 355 0 5 2 355 348 358 355 328 230 203 196 169 163 161 161 160 157 153 152 159 164 165
314 322 329 329 330 331 334 339 339 338 341 343 347 350 346 346 348 345 351 4 17 21 24 20 10 11 23 30 22 21 74 133 139 144 149 149 148 147 146 149 153 153 154
318 331 335 334 336 340 342 342 342 344 346 347 353 356 359 1 1 358 3 15 17 20 25 27 29 32 25 26 30 37 56 89 122 136 140 138 137 137 139 143 151 152 154